Погода в Маккавеево

Россия / Забайкальский край     51°45′11″N   113°57′22″E
темп.,
°C
ветер,
м/с
пор.,
м/с
влажн.,
%
обл.,
%
осадки,
мм/ч
давл.,
гПа
погр.,
м
26 февраля, пт
пт2600:00−17юв1293100 0.0 102720
03:00−16вюв2293100 0.0 1026101
06:00−17в2993100 0.0 1023350
09:00−17вюв51490100 0.0 1022616
12:00−13юв5986100 0.1 1020698
15:00−10юв4782100 0.3 1018733
18:00−11вюв4787100 0.1 1017604
21:00−13всв2795100 1.3 1017356
27 февраля, сб
сб2700:00−14ссв2596100 1.6 1015271
03:00−15сз1297100 2.4 1014119
06:00−17зсз229797 0.2 101535
09:00−17зсз3119370 0.2 1017394
12:00−14зсз7126934 0.0 10191102
15:00−14зсз8127562 0.1 10201222
18:00−15зсз71368100 0.0 10241315
21:00−20зсз6147077 0.0 1031889
28 февраля, вс
вс2800:00−23зсз514790 0.0 1034668
03:00−24зсз414810 0.0 1037603
06:00−26зсз311830 0.0 1039317
09:00−27зсз27860 0.0 1041212
12:00−20зсз48680 0.0 1039947
15:00−17зсз586420 0.0 10381380
18:00−18зсз4871100 0.0 10381336
21:00−23зсз258289 0.0 1041113
1 марта, пн
пн100:00−27з11840 0.0 104320
03:00−26ююз119733 0.0 104319
06:00−28з019740 0.0 104319
09:00−27з119441 0.0 104219
12:00−19з25760 0.0 1037566
15:00−14зсз6116124 0.0 10332271
18:00−16зсз4869100 0.1 10311297
21:00−24зсз118378 0.1 103320
2 марта, вт
вт200:00−25зюз11890 0.0 103320
03:00−27з11925 0.0 103219
06:00−28сз119422 0.0 103119
09:00−27сз119524 0.0 103119
12:00−17зюз117819 0.0 1027333
15:00−14зюз127031 0.0 1023643
18:00−15ююв117946 0.0 102233
21:00−20вюв129073 0.0 102420